Location: Powder Track
(41.8531°N, 72.3584°W)
Time: 00:11:40
(UTC+00:00)

Vanguard 2 Rocket - Pass Details

Date: 04 August 2021
Orbit: 556 x 3324 km, 32.9° (Epoch: 22 September)

Event Time Altitude Azimuth Distance (km) Brightness Sun altitude
Rises 11:24:23 0° 236° (SW) 3,292 9.2 16.6°
Reaches altitude 10° 11:27:38 10° 220° (SW) 2,091 8.4 17.2°
Maximum altitude 11:30:59 20° 171° (S) 1,357 8.0 17.8°
Drops below altitude 10° 11:33:58 10° 121° (ESE) 1,828 9.4 18.4°
Sets 11:36:34 0° 104° (ESE) 2,745 10.7 18.8°
